Stündliche Wetter Abak

Heute, 22 Juni, Dienstag

Zeit Temperatur Niederschläge Wind Luftdruck Luftfeuchtigkeit
00:00 +25°C° 8.9 mm 2 m/S 755 mmHg 97%
01:00 +24°C° 8.9 mm 2 m/S 755 mmHg 97%
02:00 +24°C° 3.5 mm 1 m/S 755 mmHg 97%
03:00 +24°C° 3.5 mm 1 m/S 754 mmHg 97%
04:00 +24°C° 3.5 mm 1 m/S 754 mmHg 97%
05:00 +24°C° 0.1 mm 1 m/S 754 mmHg 97%
06:00 +24°C° 0.1 mm 1 m/S 755 mmHg 97%
07:00 +22°C° 0.1 mm 0 m/S 755 mmHg 97%
08:00 +25°C° 0.3 mm 1 m/S 756 mmHg 94%
09:00 +26°C° 0.3 mm 1 m/S 756 mmHg 92%
10:00 +26°C° 0.3 mm 1 m/S 756 mmHg 89%
11:00 +27°C° 1 mm 2 m/S 756 mmHg 86%
12:00 +28°C° 1 mm 2 m/S 755 mmHg 82%
13:00 +29°C° 1 mm 3 m/S 755 mmHg 78%
14:00 +28°C° 1 mm 3 m/S 755 mmHg 80%
15:00 +28°C° 1 mm 3 m/S 754 mmHg 82%
16:00 +27°C° 1 mm 2 m/S 754 mmHg 84%
17:00 +27°C° 0.2 mm 2 m/S 754 mmHg 87%
18:00 +26°C° 0.2 mm 2 m/S 754 mmHg 90%
19:00 +25°C° 0.2 mm 2 m/S 754 mmHg 92%
20:00 +25°C° 0 mm 2 m/S 755 mmHg 93%
21:00 +25°C° 0 mm 1 m/S 755 mmHg 94%
22:00 +25°C° 0 mm 1 m/S 755 mmHg 95%
23:00 +25°C° 0 mm 1 m/S 755 mmHg 95%

Morgen, 23 Juni, Mittwoch

Zeit Temperatur Niederschläge Wind Luftdruck Luftfeuchtigkeit
00:00 +24°C° 0 mm 1 m/S 755 mmHg 95%
01:00 +24°C° 0 mm 1 m/S 755 mmHg 95%
02:00 +24°C° 0 mm 1 m/S 755 mmHg 95%
03:00 +24°C° 0 mm 1 m/S 754 mmHg 95%
04:00 +24°C° 0 mm 1 m/S 754 mmHg 95%
05:00 +24°C° 0.1 mm 1 m/S 754 mmHg 94%
06:00 +25°C° 0.1 mm 1 m/S 755 mmHg 94%
07:00 +23°C° 0.1 mm 0 m/S 755 mmHg 94%
08:00 +24°C° 0.4 mm 0 m/S 755 mmHg 88%
09:00 +27°C° 0.4 mm 1 m/S 756 mmHg 82%
10:00 +29°C° 0.4 mm 1 m/S 756 mmHg 77%
11:00 +29°C° 1.3 mm 1 m/S 755 mmHg 76%
12:00 +30°C° 1.3 mm 1 m/S 755 mmHg 75%
13:00 +30°C° 1.3 mm 1 m/S 755 mmHg 74%
14:00 +29°C° 2.2 mm 1 m/S 754 mmHg 78%
15:00 +28°C° 2.2 mm 1 m/S 754 mmHg 83%
16:00 +27°C° 2.2 mm 1 m/S 754 mmHg 88%
17:00 +26°C° 8.5 mm 1 m/S 753 mmHg 91%
18:00 +26°C° 8.5 mm 1 m/S 753 mmHg 93%
19:00 +25°C° 8.5 mm 1 m/S 753 mmHg 96%
20:00 +25°C° 17.1 mm 1 m/S 754 mmHg 97%
21:00 +25°C° 17.1 mm 1 m/S 755 mmHg 97%
22:00 +24°C° 17.1 mm 1 m/S 756 mmHg 98%
23:00 +24°C° 1.8 mm 1 m/S 755 mmHg 98%

übermorgen, 24 Juni, Donnerstag

Zeit Temperatur Niederschläge Wind Luftdruck Luftfeuchtigkeit
00:00 +24°C° 1.8 mm 1 m/S 755 mmHg 97%
01:00 +24°C° 1.8 mm 1 m/S 755 mmHg 97%
02:00 +24°C° 0 mm 1 m/S 755 mmHg 97%
03:00 +22°C° 0 mm 0 m/S 755 mmHg 97%
04:00 +22°C° 0 mm 0 m/S 754 mmHg 97%
05:00 +22°C° 0.2 mm 0 m/S 755 mmHg 97%
06:00 +22°C° 0.2 mm 0 m/S 755 mmHg 97%
07:00 +22°C° 0.2 mm 0 m/S 756 mmHg 96%
08:00 +25°C° 0.5 mm 1 m/S 756 mmHg 94%
09:00 +25°C° 0.5 mm 1 m/S 756 mmHg 92%
10:00 +26°C° 0.5 mm 1 m/S 757 mmHg 90%
11:00 +26°C° 0.8 mm 1 m/S 756 mmHg 90%
12:00 +26°C° 0.8 mm 1 m/S 756 mmHg 89%
13:00 +26°C° 0.8 mm 1 m/S 755 mmHg 89%
14:00 +26°C° 0.9 mm 1 m/S 755 mmHg 90%
15:00 +26°C° 0.9 mm 1 m/S 754 mmHg 92%
16:00 +26°C° 0.9 mm 1 m/S 754 mmHg 93%
17:00 +23°C° 0.3 mm 0 m/S 754 mmHg 95%
18:00 +23°C° 0.3 mm 0 m/S 754 mmHg 96%
19:00 +23°C° 0.3 mm 0 m/S 754 mmHg 97%
20:00 +23°C° 0 mm 0 m/S 755 mmHg 97%
21:00 +23°C° 0 mm 0 m/S 755 mmHg 97%
22:00 +23°C° 0 mm 0 m/S 756 mmHg 96%
23:00 +22°C° 0 mm 0 m/S 756 mmHg 97%

25 Juni, Freitag

Zeit Temperatur Niederschläge Wind Luftdruck Luftfeuchtigkeit
00:00 +22°C° 0 mm 0 m/S 755 mmHg 97%
01:00 +22°C° 0 mm 0 m/S 755 mmHg 97%
02:00 +22°C° 0 mm 0 m/S 755 mmHg 97%
03:00 +22°C° 0 mm 0 m/S 755 mmHg 97%
04:00 +22°C° 0 mm 0 m/S 754 mmHg 97%
05:00 +22°C° 0 mm 0 m/S 755 mmHg 96%
06:00 +22°C° 0 mm 0 m/S 755 mmHg 96%
07:00 +22°C° 0 mm 0 m/S 755 mmHg 95%
08:00 +23°C° 0 mm 0 m/S 756 mmHg 92%
09:00 +26°C° 0 mm 1 m/S 756 mmHg 88%
10:00 +27°C° 0 mm 1 m/S 757 mmHg 84%
11:00 +27°C° 0 mm 1 m/S 756 mmHg 83%
12:00 +27°C° 0 mm 1 m/S 756 mmHg 81%
13:00 +28°C° 0 mm 1 m/S 755 mmHg 80%
14:00 +28°C° 0 mm 1 m/S 755 mmHg 77%
15:00 +29°C° 0 mm 1 m/S 754 mmHg 74%
16:00 +29°C° 0 mm 1 m/S 753 mmHg 71%
17:00 +28°C° 0.1 mm 1 m/S 754 mmHg 77%
18:00 +27°C° 0.1 mm 1 m/S 754 mmHg 82%
19:00 +26°C° 0.1 mm 1 m/S 754 mmHg 88%
20:00 +26°C° 0 mm 1 m/S 755 mmHg 90%
21:00 +25°C° 0 mm 1 m/S 755 mmHg 91%
22:00 +23°C° 0 mm 0 m/S 755 mmHg 93%
23:00 +25°C° 0 mm 1 m/S 755 mmHg 93%

26 Juni, Samstag

Zeit Temperatur Niederschläge Wind Luftdruck Luftfeuchtigkeit
00:00 +25°C° 0 mm 1 m/S 755 mmHg 94%
01:00 +25°C° 0 mm 1 m/S 755 mmHg 94%
02:00 +25°C° 0 mm 1 m/S 755 mmHg 94%
03:00 +23°C° 0 mm 0 m/S 754 mmHg 94%
04:00 +23°C° 0 mm 0 m/S 754 mmHg 93%
05:00 +23°C° 0 mm 0 m/S 754 mmHg 93%
06:00 +23°C° 0 mm 0 m/S 755 mmHg 93%
07:00 +23°C° 0 mm 0 m/S 755 mmHg 93%
08:00 +24°C° 0 mm 0 m/S 755 mmHg 89%
09:00 +27°C° 0 mm 1 m/S 755 mmHg 86%
10:00 +28°C° 0 mm 1 m/S 756 mmHg 83%
11:00 +29°C° 0 mm 1 m/S 755 mmHg 76%
12:00 +28°C° 0 mm 0 m/S 755 mmHg 70%
13:00 +30°C° 0 mm 0 m/S 754 mmHg 64%
14:00 +31°C° 0.2 mm 1 m/S 754 mmHg 65%
15:00 +31°C° 0.2 mm 1 m/S 753 mmHg 66%
16:00 +31°C° 0.2 mm 1 m/S 753 mmHg 67%
17:00 +30°C° 1.4 mm 1 m/S 753 mmHg 74%
18:00 +28°C° 1.4 mm 1 m/S 753 mmHg 80%
19:00 +27°C° 1.4 mm 1 m/S 754 mmHg 87%
20:00 +26°C° 0.4 mm 1 m/S 754 mmHg 89%
21:00 +26°C° 0.4 mm 1 m/S 755 mmHg 92%
22:00 +26°C° 0.4 mm 1 m/S 755 mmHg 94%
23:00 +26°C° 0 mm 1 m/S 754 mmHg 94%

27 Juni, Sonntag

Zeit Temperatur Niederschläge Wind Luftdruck Luftfeuchtigkeit
00:00 +25°C° 0 mm 2 m/S 754 mmHg 95%
01:00 +25°C° 0 mm 2 m/S 754 mmHg 96%
02:00 +25°C° 0 mm 1 m/S 753 mmHg 96%
03:00 +25°C° 0 mm 1 m/S 753 mmHg 96%
04:00 +25°C° 0 mm 1 m/S 753 mmHg 97%
05:00 +25°C° 0.3 mm 1 m/S 754 mmHg 95%
06:00 +24°C° 0.3 mm 0 m/S 754 mmHg 94%
07:00 +24°C° 0.3 mm 0 m/S 755 mmHg 93%
08:00 +25°C° 0.7 mm 0 m/S 755 mmHg 87%
09:00 +28°C° 0.7 mm 1 m/S 755 mmHg 81%
10:00 +29°C° 0.7 mm 1 m/S 756 mmHg 76%
11:00 +30°C° 0.5 mm 1 m/S 755 mmHg 73%
12:00 +31°C° 0.5 mm 1 m/S 754 mmHg 70%
13:00 +31°C° 0.5 mm 2 m/S 754 mmHg 67%
14:00 +31°C° 2.2 mm 2 m/S 754 mmHg 71%
15:00 +30°C° 2.2 mm 2 m/S 753 mmHg 74%
16:00 +30°C° 2.2 mm 2 m/S 753 mmHg 77%
17:00 +29°C° 1.4 mm 2 m/S 753 mmHg 81%
18:00 +27°C° 1.4 mm 2 m/S 754 mmHg 85%
19:00 +26°C° 1.4 mm 2 m/S 754 mmHg 89%
20:00 +26°C° 1.2 mm 2 m/S 754 mmHg 90%
21:00 +26°C° 1.2 mm 2 m/S 754 mmHg 92%
22:00 +25°C° 1.2 mm 2 m/S 755 mmHg 93%
23:00 +25°C° 0 mm 2 m/S 754 mmHg 94%
Mehr zeigen

Wir brauchen deine Erlaubnis

Meteoprog und unser Service Anbieter werden persönliche Daten aufbewahren, so wie Cookies, Geräte Bezeichnung oder ähnliche Technologien von deinem Gerät und Prozess, so wie Persönliche Daten Inhalte und Werbungen, genauso wie social Media und den Verkehr zu analysieren.

  • Aufbewahrung und/oder Zugang zu deiner Geräte Informationen.

    Cookies, Geräte Bezeichnung oder andere Informationen, können aufbewahrt oder Zugang zu deinem Gerät erhalten, für den Grund, der oben angegeben wird.

  • Personalisierte Werbung und Inhalte, Messungen, Einblick in das Publikum und Produkt Entwicklung.

    Werbungen und Inhalte können personalisiert werden, basierend auf ein Profil. Mehr Daten können besser personalisierte Werbungen und Inhalte hinzufügen. Werbung und Inhalte können gezeigt und gemessen werden. Einblicke über das Publikum, welche die Werbung gesehen haben und den Inhalt, können abgeleitet werden. So wie Daten können genutzt werden, um es zu verbessern oder die Benutzer Erfahrung zu verbessern das System und die Software.

Wenn du “Ich stimme zu” klickst, erlaubst du uns, die Cookies zu benutzen die Geräte Bezeichnung, den Web oder ähnliche Technologien zu benutzen. Deine Settings, können in deinem Gerät bei deinem Browser geändert werden.

Für den bestimmten Zweck, berechtigten Interessen beruhen darauf, mehr als auf den Inhalt. Du kannst mehr darüber in unseren Privaten und Cookie Politik lesen.